Regional Weather Roundup
Issued by NWS

Home | Current Version | Previous Version | Graphics & Text | Print | Product List | Glossary On
Versions: 1 2 3 4 5 6 7 8 9 10 11 12 13 14 15 16 17 18 19 20 21 22 23 24 25 26 27 28 29 30 31 32 33 34 35 36 37 38 39 40 41 42 43 44 45 46 47 48 49 50
000
ASUS43 KIND 302059
RWRIN

WEATHER ROUNDUP FOR INDIANA
NATIONAL WEATHER SERVICE INDIANAPOLIS IN
500 PM EDT MON MAY 30 2016

NOTE: "FAIR" INDICATES FEW OR NO CLOUDS BELOW 12,000 FEET WITH NO
SIGNIFICANT WEATHER AND/OR OBSTRUCTIONS TO VISIBILITY.

* - STATION DOES NOT REPORT WEATHER SUCH AS PRECIPITATION OR FOG.

+ - STATION NOT QUALITY CONTROLLED BY THE NATIONAL WEATHER SERVICE.
    USE DATA WITH CAUTION...ESPECIALLY DEWPOINT AND RELATIVE
    HUMIDITY OBSERVATIONS.

INZ001>003-010>013-019-020-302200-
NORTHWEST INDIANA

CITY           SKY/WX    TMP DP  RH WIND       PRES   REMARKS
GARY /AIRPORT/ MOSUNNY   81  64  57 E12       29.98F
RENSSELAER +   MOSUNNY   90  45  20 SW8       29.97F

$$

LMZ046-743>745-302200-
SOUTHERN LAKE MICHIGAN

STATION/POSITION TIME  TEMP    WIND        PRES    WAVE
                       AIR SEA DIR/SP/G            HT
                 (UTC) (F)     (DEG/KT/KT) (MB)    (FT)
BURNS HARBOR     2000   67      80/ 11/ 12 1016.3S
MICHIGAN CITY    2000   66      30/  9/  9   N/A
5NW MICH CITY    2000   65 62   70/  6/  6   N/A     1

$$

INZ004-005-014>016-021>024-302200-
NORTH CENTRAL INDIANA

CITY           SKY/WX    TMP DP  RH WIND       PRES   REMARKS
ELKHART        MOSUNNY   84  63  48 NW9G17    29.99F
GOSHEN         SUNNY     83  54  36 N14       29.98F
SOUTH BEND     SUNNY     84  58  40 NW9       29.99F

$$

INZ006>009-017-018-025>027-302200-
NORTHEAST INDIANA

CITY           SKY/WX    TMP DP  RH WIND       PRES   REMARKS
ANGOLA *+        N/A     88  82  84 W12       29.98F HX 108
FORT WAYNE     MOSUNNY   88  51  28 W12       29.98F

$$

INZ028-029-035-036-043>045-051>053-302200-
WEST CENTRAL INDIANA

CITY           SKY/WX    TMP DP  RH WIND       PRES   REMARKS
CRAWFORDSVL +  SUNNY     85  52  32 W5        30.01F
GREENCASTLE +  MOSUNNY   82  61  47 S3        30.02F
LAFAYETTE      MOSUNNY   84  53  34 W9        29.98F
TERRE HAUTE    CLOUDY    86  56  35 S7        30.01F

$$

INZ030>032-037>040-046>048-054>057-064-065-302200-
CENTRAL INDIANA

CITY           SKY/WX    TMP DP  RH WIND       PRES   REMARKS
COLUMBUS       MOSUNNY   84  54  34 NE3       30.01F
INDIANAPOLIS   PTSUNNY   84  56  38 VRB5      30.00F
-EAGLE CREEK   MOSUNNY   85  53  33 S7        30.00F
KOKOMO *+      PTSUNNY   88  54  31 N10       29.98F
SHELBYVILLE    PTSUNNY   87  53  31 W7        30.00F

$$

INZ033-034-041-042-049-050-058-059-302200-
EAST CENTRAL INDIANA

CITY           SKY/WX    TMP DP  RH WIND       PRES   REMARKS
MUNCIE         PTSUNNY   87  48  25 W6        29.99F

$$

INZ060-061-067>069-081>083-085>088-302200-
SOUTHWEST INDIANA

CITY           SKY/WX    TMP DP  RH WIND       PRES   REMARKS
EVANSVILLE     MOSUNNY   87  57  35 NE6       30.01F
HUNTINGBURG *+ SUNNY     84  61  45 W5        30.01F

$$

INZ062-063-066-070>080-084-089>092-302200-
SOUTH CENTRAL AND SOUTHEAST INDIANA

CITY           SKY/WX    TMP DP  RH WIND       PRES   REMARKS
BLOOMINGTON    MOSUNNY   84  56  38 NW5       30.02F
MADISON *+     PTSUNNY   86  46  25 NE6       30.03F
SEYMOUR +      MOSUNNY   88  57  35 W3        30.00F

$$





USA.gov is the U.S. government's official web portal to all federal, state and local government web resources and services.